sim
Sign-in with your pilot id or email,
or register
Callsign
Passwort

Schedule Details

Flight Number: RYR4774 (2)
Departure: Milan Bergamo Il Caravaggio International Airport (LIME) at 13:15
Arrival: Thessaloniki International Airport (LGTS) at 15:20
Route: Ryanair Passenger Schedule. Enter filed route here before submitting Pirep.

Weather Information
Getting current METAR information for LIME 202350Z 02005KT CAVOK 12/06 Q1024 NOSIG
Getting current METAR information for LGTS 202320Z 11005KT 9999 SCT025 09/07 Q1027 NOSIG

Schedule Frequency

Route Map